Main page
METAR-TAF:

METAR-TAF

Airports :

Parsabad-Moghan Airport

Parsabad, Iran

latitude: 39-36-13N, longitude: 47-52-53E, elevation: 77 m

Current weather observation

The report was made 28 minutes ago, at 22:00 UTC
Wind 4 kt from the West/Southwest
Temperature 8°C
Humidity 100%
Pressure 1024 hPa

METAR: OITP 172200Z AUTO 24004KT //// // ////// 08/08 Q1024

Time: 01:58 (22:28 UTC)


TAF: missing

Weather observations and forecasts of more than 4000 airports (METAR and TAF reports).

The available stations are represented by yellow and red dots on the map.

Hover mouse over dot to see the name of the station.

Then click to see weather observations and forecasts.

To change the map : click on the green buttons with a black cross to zoom in, on the green button with a dash to zoom out, or on the green arrows for adjacent maps.


METAR-TAF: